Home > Weather > Grise Fiord > Past weeks

Flag for Canada Past Weather in Grise Fiord, Nunavut, Canada — Yesterday and Last 2 Weeks

Now
28 °F

Chilly.


Feels Like: 18 °F
Forecast: 19 / 32 °F
Wind: 12 mph from Southeast

Location: Kitsissut (Carey Oeer)

Current Time: May 27, 2016 at 2:44:22 AM

Latest Report: May 27, 2016 at 1:00 AM


Visibility: N/A

Pressure: 29.91 "Hg

Humidity: 91%

Dew Point: 26 °F

Location of Grise FiordLocation

Past Weather in Grise Fiord — Graph

°F

Grise Fiord Temperature Yesterday

Maximum temperature yesterday: 29 °F (at 10:00 AM)
Minimum temperature yesterday: 26 °F (at 12:00 AM)
Average temperature yesterday: 28 °F

High & Low Weather Summary for the Past Weeks

 TemperatureHumidityPressure
High33 °F (May 23, 6:00 PM)96% (May 20, 4:00 AM)30.38 "Hg (May 20, 4:00 AM)
Low24 °F (May 14, 2:00 AM)62% (May 20, 5:00 AM)29.44 "Hg (May 20, 4:00 PM)
Average29 °F83%29.83 "Hg
* Reported May 12 1:00 AM — May 27 1:00 AM, Grise Fiord, Weather by CustomWeather, © 2016

Note: Actual official high and low records may vary slightly from our data, if they occured in-between our weather recording intervals... More about our weather records

Advertising

Grise Fiord Weather History for the Previous 24 Hours

Scroll right to see more
 ConditionsComfort  
Time TempWeatherWind HumidityBarometerVisibility
1:00 AM
Fri, May 27
28 °FChilly.12 mph91%29.91 "HgN/A
12:00 AM27 °FChilly.1 mph95%29.90 "HgN/A
11:00 PM
Thu, May 26
27 °FChilly.9 mph95%29.88 "HgN/A
10:00 PM28 °FChilly.9 mph94%29.87 "HgN/A
9:00 PM28 °FChilly.5 mph91%29.87 "HgN/A
8:00 PM28 °FChilly.5 mph87%29.86 "HgN/A
7:00 PM28 °FChilly.2 mph83%29.86 "HgN/A
6:00 PM29 °FChilly.2 mph77%29.85 "HgN/A
5:00 PM29 °FChilly.2 mph79%29.85 "HgN/A
4:00 PM28 °FChilly.6 mph82%29.83 "HgN/A
3:00 PM29 °FChilly.6 mph81%29.81 "HgN/A
2:00 PM28 °FChilly.6 mph83%29.80 "HgN/A
1:00 PM28 °FChilly.5 mph85%29.78 "HgN/A
12:00 PM28 °FChilly.14 mph86%29.75 "HgN/A
11:00 AM28 °FChilly.8 mph88%29.74 "HgN/A
10:00 AM29 °FChilly.7 mph86%29.72 "HgN/A
9:00 AM29 °FChilly.9 mph87%29.69 "HgN/A
8:00 AM29 °FChilly.15 mph87%29.67 "HgN/A
7:00 AM28 °FChilly.15 mph86%29.66 "HgN/A
6:00 AM28 °FChilly.15 mph87%29.65 "HgN/A
5:00 AM28 °FChilly.15 mph83%29.64 "HgN/A
4:00 AM28 °FChilly.15 mph85%29.62 "HgN/A
3:00 AM27 °FChilly.17 mph86%29.61 "HgN/A
2:00 AM26 °FChilly.21 mph84%29.59 "HgN/A
Weather by CustomWeather, © 2016

See weather overviewHow to use our weather pages